Home > Time Zones > World Clock > Weather > U.S.A. > Gary > Past weeks

Flag for U.S.A. Weather past 2 weeks in Gary, Indiana, U.S.A.

Now
61 °F

Scattered clouds.


Feels Like: 61 °F
Forecast: 41 / 64 °F
Wind: 16 mph from Southeast

Location: Lansing Municipal Airport


UV Index: 0 (Low)

Visibility: 10 mi


Pressure: 29.88 "Hg

Humidity: 33%

Dew point: 31 °F

Location of GaryLocation

Historic Weather in Gary

°F

Gary temperature yesterday

Maximum temperature yesterday: 47 °F (at 3:35 PM)
Minimum temperature yesterday: 35 °F (at 4:55 AM)
Average temperature yesterday: 41 °F

Past Weeks' High & Low Weather Summary

 TemperatureHumidityPressure
High78 °F (Apr 12, 3:35 PM)95% (Apr 14, 6:55 PM)30.38 "Hg (Apr 14, 6:55 PM)
Low27 °F (Apr 15, 6:35 AM)15% (Apr 11, 3:55 PM)29.39 "Hg (Apr 14, 2:15 AM)
Average51 °F58%30.03 "Hg
* Reported Apr 9 1:15 PM — Apr 24 1:15 PM, Gary, Weather by CustomWeather, © 2014

Note: Actual official high and low records may vary slightly from our data, if they occured in-between our weather recording intervals... More about our weather records

Advertising

Historic Weather Conditions — Data for Previous 24 hours

 ConditionsComfort  
Time TempWeatherWind HumidityBarometerVisibility
1:15 PM
Apr 24
59 °FScattered clouds.16 mph35%29.90 "Hg10 mi
12:55 PM60 °FScattered clouds.22 mph35%29.90 "Hg10 mi
12:35 PM60 °FScattered clouds.18 mph36%29.92 "Hg10 mi
12:15 PM59 °FPartly sunny.17 mph36%29.93 "Hg10 mi
11:55 AM60 °FScattered clouds.17 mph39%29.93 "Hg10 mi
11:35 AM60 °FScattered clouds.16 mph39%29.95 "Hg10 mi
11:15 AM60 °FScattered clouds.22 mph41%29.95 "Hg10 mi
10:55 AM58 °FSunny.22 mph43%29.94 "Hg10 mi
10:35 AM57 °FScattered clouds.20 mph45%29.96 "Hg10 mi
10:15 AM57 °FPartly sunny.24 mph47%29.97 "Hg10 mi
9:55 AM55 °FScattered clouds.16 mph51%29.97 "Hg10 mi
9:35 AM54 °FScattered clouds.14 mph54%29.98 "Hg10 mi
9:15 AM52 °FOvercast.16 mph57%29.99 "Hg10 mi
8:55 AM51 °FOvercast.14 mph58%30.00 "Hg10 mi
8:15 AM49 °FOvercast.14 mph61%30.01 "Hg10 mi
7:55 AM47 °FOvercast.12 mph67%30.01 "Hg10 mi
7:15 AM44 °FMore clouds than sun.6 mph77%30.03 "Hg10 mi
6:55 AM43 °FBroken clouds.7 mph79%30.04 "Hg10 mi
6:35 AM42 °FBroken clouds.6 mph80%30.04 "Hg10 mi
6:15 AM41 °FOvercast.7 mph80%30.04 "Hg10 mi
5:55 AM41 °FPassing clouds.5 mph78%30.05 "Hg10 mi
5:35 AM41 °FPartly cloudy.7 mph78%30.06 "Hg10 mi
5:15 AM42 °FPassing clouds.6 mph78%30.06 "Hg10 mi
4:55 AM42 °FPartly cloudy.7 mph80%30.06 "Hg10 mi
4:15 AM42 °FPartly cloudy.5 mph83%30.06 "Hg10 mi
3:55 AM42 °FOvercast.6 mph84%30.06 "Hg10 mi
3:35 AM42 °FOvercast.6 mph86%30.07 "Hg10 mi
3:15 AM42 °FMostly cloudy.7 mph87%30.06 "Hg10 mi
2:55 AM42 °FMostly cloudy.8 mph87%30.05 "Hg10 mi
2:15 AM42 °FDrizzle. Mostly cloudy.3 mph85%30.08 "Hg10 mi
1:55 AM42 °FLight rain. Mostly cloudy.6 mph81%30.07 "Hg10 mi
1:35 AM42 °FLight rain. Overcast.7 mph81%30.08 "Hg10 mi
1:15 AM42 °FRain. Mostly cloudy.No wind77%30.06 "Hg10 mi
12:55 AM42 °FLight rain. Overcast.No wind72%30.05 "Hg10 mi
12:35 AM42 °FLight rain. Mostly cloudy.No wind70%30.04 "Hg10 mi
12:15 AM41 °FLight rain. Mostly cloudy.No wind69%30.03 "Hg10 mi
11:55 PM
Apr 23
41 °FLight rain. Overcast.8 mph70%30.02 "Hg10 mi
11:15 PM41 °FOvercast.8 mph68%30.05 "Hg10 mi
10:55 PM40 °FMostly cloudy.5 mph69%30.06 "Hg10 mi
10:15 PM40 °FOvercast.7 mph68%30.08 "Hg10 mi
9:55 PM40 °FOvercast.8 mph66%30.09 "Hg10 mi
9:35 PM39 °FOvercast.7 mph66%30.10 "Hg10 mi
9:15 PM39 °FOvercast.8 mph63%30.11 "Hg10 mi
8:55 PM39 °FOvercast.9 mph61%30.11 "Hg10 mi
8:35 PM39 °FOvercast.8 mph62%30.12 "Hg10 mi
8:15 PM40 °FOvercast.9 mph61%30.13 "Hg10 mi
7:55 PM40 °FPassing clouds.10 mph60%30.12 "Hg10 mi
7:35 PM40 °FPartly sunny.9 mph55%30.12 "Hg10 mi
7:15 PM41 °FPartly sunny.8 mph55%30.11 "Hg10 mi
6:55 PM41 °FScattered clouds.8 mph53%30.12 "Hg10 mi
6:35 PM42 °FScattered clouds.10 mph48%30.13 "Hg10 mi
6:15 PM43 °FPartly sunny.9 mph48%30.13 "Hg10 mi
5:55 PM44 °FScattered clouds.7 mph52%30.12 "Hg10 mi
5:15 PM44 °FSunny.10 mph52%30.14 "Hg10 mi
4:55 PM46 °FSunny.7 mph47%30.13 "Hg10 mi
4:15 PM46 °FSunny.9 mph51%30.12 "Hg10 mi
3:55 PM46 °FSunny.10 mph49%30.13 "Hg10 mi
3:35 PM47 °FSunny.13 mph51%30.13 "Hg10 mi
3:15 PM47 °FSunny.10 mph52%30.14 "Hg10 mi
2:55 PM46 °FSunny.12 mph52%30.14 "Hg10 mi
2:15 PM47 °FSunny.12 mph53%30.15 "Hg10 mi
Weather by CustomWeather, © 2014

See weather overview